Regional Weather Roundup
Issued by NWS

Home | Current Version | Previous Version | Graphics & Text | Print | Product List | Glossary On
Versions: 1 2 3 4 5 6 7 8 9 10 11 12 13 14 15 16 17 18 19 20 21 22 23 24 25 26 27 28 29 30 31 32 33 34 35 36 37 38 39 40 41 42 43 44 45 46 47 48
000
ASUS45 KBOU 261807
RWRCO

WEATHER ROUNDUP FOR COLORADO
NATIONAL WEATHER SERVICE DENVER/BOULDER CO
1200 PM MDT THU MAR 26 2015

NOTE: "FAIR" INDICATES FEW OR NO CLOUDS BELOW 12000 FEET WITH NO
SIGNIFICANT WEATHER AND/OR OBSTRUCTIONS TO VISIBILITY.

COZ001>005-013-030-031-261900-
...NORTHWEST COLORADO...

CITY           SKY/WX    TMP DP  RH WIND       PRES   REMARKS
CRAIG          MOSUNNY   44  23  43 W8        30.36F
HAYDEN         MOSUNNY   41  19  42 NW7       30.36S
MEEKER         SUNNY     45  22  40 VRB3      30.37S
MOUNT WERNER   NOT AVBL
STEAMBOAT SPGS MOSUNNY   36  18  47 W3        30.37S
WALDEN         SUNNY     36  21  55 SW9       30.30S
$$

COZ006>008-011-261900-
...WEST CENTRAL VALLEYS...

CITY           SKY/WX    TMP DP  RH WIND       PRES   REMARKS
GRAND JUNCTION SUNNY     50  16  25 S8        30.35F
MONTROSE       SUNNY     50  11  20 CALM      30.37F
EAGLE          MOSUNNY   43  16  33 CALM      30.37F
RIFLE          SUNNY     48  15  26 CALM      30.36F
DELTA          SUNNY     51  16  24 CALM      30.36F
NUCLA          SUNNY     52  12  20 CALM      30.38S
$$

COZ017>023-064>068-261900-
...SOUTHWEST COLORADO...

CITY           SKY/WX    TMP DP  RH WIND       PRES   REMARKS
DURANGO        SUNNY     48  12  23 VRB5      30.32F
CORTEZ         SUNNY     57  15  19 SW9       30.31F
PAGOSA SPRINGS SUNNY     46   7  19 S7        30.33F
TELLURIDE      SUNNY     42  14  31 SW8       30.39S
WOLF CREEK PAS SUNNY     32   5  32 CALM      30.43R
$$

COZ009-010-012-014-032>034-037-058>063-261900-
...CENTRAL COLORADO...

CITY           SKY/WX    TMP DP  RH WIND       PRES   REMARKS
ASPEN          SUNNY     42  19  39 NE9       30.35S
BUENA VISTA    MOSUNNY   48  12  23 NW12G18   30.26F
COPPER MTN     MOSUNNY   27  12  54 W10G23    30.36S WCI  17
BERTHOUD PASS  HAZE      14   9  79 NW24G35   30.31S VSB 1/4 WCI  -5
COTTONWOOD PAS MOSUNNY   45  10  24 CALM      30.31S
GUNNISON       SUNNY     43  14  31 SW9       30.37F
KREMMLING      MOSUNNY   41  14  33 CALM      30.34F
LEADVILLE      MOSUNNY   35  13  40 N12G17    30.32S WCI  27
SALIDA         MOSUNNY   48  13  24 N9        30.34F
SUNLIGHT       SUNNY     30  18  59 CALM      30.43S
WILKERSON PASS PTSUNNY   32  12  43 NW14G32   30.32S WCI  22
$$

COZ069>075-261900-
...SAN LUIS VALLEY/SANGRE DE CRISTO MOUNTAINS...

CITY           SKY/WX    TMP DP  RH WIND       PRES   REMARKS
ALAMOSA        SUNNY     44  10  25 VRB5      30.31F
LA VETA PASS   SUNNY     37  18  44 S6        30.32S
SAGUACHE       SUNNY     45  12  26 NW8       30.29F
$$

COZ035-036-038>040-261900-
...NORTHERN COLORADO FRONT RANGE...

CITY           SKY/WX    TMP DP  RH WIND       PRES   REMARKS
DENVER INTL AP PTSUNNY   54  20  26 SW5       30.18F
DMNS CITY PARK   N/A     56  19  23 S5        30.17F
AURORA         NOT AVBL
FRONT RANGE AP PTSUNNY  N/A N/A N/A MISG        N/A
ERIE MUNI ARPT MOSUNNY   56  13  18 CALM      30.17F
BOULDER MUN AP MOSUNNY   55  21  26 W3        30.16F
CENTENNIAL     PTSUNNY   50  21  32 VRB5      30.20F
BROOMFIELD     PTSUNNY   55  19  24 W10G18    30.19F
FORT COLLINS   MOSUNNY   54  28  37 E5        30.19S
LONGMONT       MOSUNNY   61  23  23 NE8       30.18S
$$

COZ041-046-047-076>085-087-088-261900-
...PIKES PEAK/PALMER DIVIDE AND SOUTHERN FOOTHILLS...

CITY           SKY/WX    TMP DP  RH WIND       PRES   REMARKS
COLO. SPRINGS  MOSUNNY   53  14  21 NW6       30.22F
A. F. ACADEMY  SUNNY     49  16  26 E3        30.21F
ELLICOTT       SUNNY    N/A N/A N/A N14G21    30.22F
FALCON         SUNNY     49  15  26 N10       30.24F
FORT CARSON    SUNNY     51  19  27 SE6       30.21F
LIMON          SUNNY     51  21  30 NW21      30.20F
MONUMENT HILL  SUNNY     45  18  33 W8        30.22F
TRINIDAD       SUNNY     50  20  30 NW8       30.26F
$$

COZ042>045-048>051-090-091-261900-
...NORTHEAST COLORADO...

CITY           SKY/WX    TMP DP  RH WIND       PRES   REMARKS
GREELEY ARPT   MOSUNNY   54  32  43 SE5       30.17F
AKRON          CLOUDY    52  29  41 NW16G25   30.17F
BURLINGTON     MOSUNNY   56  23  27 NW20G28   30.17F
WRAY           PTSUNNY   57  25  29 NW20G28   30.14F
STERLING       CLOUDY    54  25  32 N23G32    30.15S
HOLYOKE        PTSUNNY   59  27  29 NW20G30   30.13F
FORT MORGAN    CLOUDY    52  27  37 W12G17    30.19F
$$

COZ086-089-092>099-261900-
...SOUTHEAST COLORADO...

CITY           SKY/WX    TMP DP  RH WIND       PRES   REMARKS
PUEBLO         SUNNY     53  26  35 VRB3      30.22F
LA JUNTA       SUNNY     57  24  28 W10       30.22F
LAMAR          SUNNY     55  30  38 W16       30.19F
SPRINGFIELD      N/A     56  21  25 NW15G22   30.21F
$$


USA.gov is the U.S. government's official web portal to all federal, state and local government web resources and services.